Terminal Aerodrome Forecast
Issued by NWS Kansas City/Pleasant Hill, MO

Home | Current Version | Previous Version | Text Only | Print | Product List | Glossary On
Versions: 1 2 3 4 5 6 7 8 9 10 11 12 13
000
FTUS43 KEAX 031120
TAFMCI
TAF
KMCI 031120Z 0312/0412 19011KT P6SM SCT120
     FM031600 19013G20KT P6SM SCT100
     FM040000 17008KT P6SM FEW100=

USA.gov is the U.S. government's official web portal to all federal, state and local government web resources and services.